Time,TemperatureF,DewpointF,PressureIn,WindDirection,WindDirectionDegrees,WindSpeedMPH,WindSpeedGustMPH,Humidity,HourlyPrecipIn,Conditions,Clouds,dailyrainin,SoftwareType,DateUTC
2013-03-06 00:02:00,27.0,26.0,29.61,East,91,20.0,27.0,95,0.00,,,0.36,,2013-03-06 05:02:00,
2013-03-06 00:12:00,27.0,26.0,29.61,East,91,20.0,27.0,95,0.00,,,0.36,,2013-03-06 05:12:00,
2013-03-06 00:22:00,26.0,25.0,29.61,ENE,76,15.0,33.0,95,0.00,,,0.36,,2013-03-06 05:22:00,
2013-03-06 00:32:00,26.0,25.0,29.60,East,91,16.0,33.0,96,0.00,,,0.36,,2013-03-06 05:32:00,
2013-03-06 00:42:00,26.0,25.0,29.60,East,91,16.0,33.0,96,0.00,,,0.36,,2013-03-06 05:42:00,
2013-03-06 00:52:00,26.0,25.0,29.60,East,91,16.0,33.0,96,0.00,,,0.36,,2013-03-06 05:52:00,
2013-03-06 01:02:00,26.0,25.0,29.59,East,88,22.0,29.0,97,0.00,,,0.36,,2013-03-06 06:02:00,
2013-03-06 01:12:00,26.0,25.0,29.59,East,88,22.0,29.0,97,0.00,,,0.36,,2013-03-06 06:12:00,
2013-03-06 01:22:00,26.0,25.0,29.59,ENE,76,21.0,22.0,97,0.00,,,0.36,,2013-03-06 06:22:00,
2013-03-06 01:32:00,26.0,25.0,29.59,ENE,76,21.0,22.0,97,0.00,,,0.36,,2013-03-06 06:32:00,
2013-03-06 01:42:00,26.0,25.0,29.59,ENE,76,21.0,22.0,97,0.00,,,0.36,,2013-03-06 06:42:00,
2013-03-06 01:52:00,26.0,25.0,29.59,ENE,76,20.0,24.0,97,0.00,,,0.36,,2013-03-06 06:52:00,
2013-03-06 02:02:00,26.0,25.0,29.59,East,87,12.0,25.0,97,0.00,,,0.36,,2013-03-06 07:02:00,
2013-03-06 02:11:00,26.0,25.0,29.59,East,87,12.0,25.0,97,0.00,,,0.36,,2013-03-06 07:11:00,
2013-03-06 02:22:00,26.0,25.0,29.59,ESE,107,18.0,25.0,97,0.00,,,0.36,,2013-03-06 07:22:00,
2013-03-06 02:32:00,25.0,24.0,29.59,SE,136,11.0,18.0,97,0.00,,,0.36,,2013-03-06 07:32:00,
2013-03-06 02:42:00,25.0,24.0,29.59,SE,136,11.0,18.0,97,0.00,,,0.36,,2013-03-06 07:42:00,
2013-03-06 02:52:00,25.0,24.0,29.59,SE,136,11.0,18.0,97,0.00,,,0.36,,2013-03-06 07:52:00,
2013-03-06 03:01:00,25.0,25.0,29.61,ENE,77,11.0,19.0,98,0.00,,,0.36,,2013-03-06 08:01:00,
2013-03-06 03:11:00,25.0,25.0,29.61,ENE,77,11.0,19.0,98,0.00,,,0.36,,2013-03-06 08:11:00,
2013-03-06 03:21:00,25.0,25.0,29.61,ENE,77,11.0,19.0,98,0.00,,,0.36,,2013-03-06 08:21:00,
2013-03-06 03:32:00,25.0,25.0,29.61,East,95,7.0,17.0,98,0.00,,,0.36,,2013-03-06 08:32:00,
2013-03-06 03:42:00,25.0,25.0,29.61,East,95,7.0,17.0,98,0.00,,,0.36,,2013-03-06 08:42:00,
2013-03-06 03:52:00,25.0,25.0,29.61,East,95,7.0,17.0,98,0.00,,,0.36,,2013-03-06 08:52:00,
2013-03-06 04:02:00,25.0,25.0,29.62,East,95,10.0,14.0,98,0.00,,,0.36,,2013-03-06 09:02:00,
2013-03-06 04:12:00,25.0,25.0,29.62,East,95,10.0,14.0,98,0.00,,,0.36,,2013-03-06 09:12:00,
2013-03-06 04:22:00,25.0,25.0,29.62,ESE,111,4.0,13.0,98,0.00,,,0.36,,2013-03-06 09:22:00,
2013-03-06 04:32:00,25.0,25.0,29.64,East,83,7.0,12.0,98,0.00,,,0.36,,2013-03-06 09:32:00,
2013-03-06 04:42:00,25.0,25.0,29.64,East,83,7.0,12.0,98,0.00,,,0.36,,2013-03-06 09:42:00,
2013-03-06 04:52:00,26.0,26.0,29.64,East,94,3.0,12.0,98,0.00,,,0.36,,2013-03-06 09:52:00,
2013-03-06 05:02:00,26.0,26.0,29.65,East,96,3.0,11.0,98,0.00,,,0.36,,2013-03-06 10:02:00,
2013-03-06 05:11:00,26.0,26.0,29.65,East,96,3.0,11.0,98,0.00,,,0.36,,2013-03-06 10:11:00,
2013-03-06 05:22:00,26.0,26.0,29.65,East,96,3.0,11.0,98,0.00,,,0.36,,2013-03-06 10:22:00,
2013-03-06 05:32:00,26.0,26.0,29.65,East,96,3.0,11.0,98,0.00,,,0.36,,2013-03-06 10:32:00,
2013-03-06 05:42:00,26.0,26.0,29.65,East,96,3.0,11.0,98,0.00,,,0.36,,2013-03-06 10:42:00,
2013-03-06 06:02:00,26.0,26.0,29.67,East,98,7.0,10.0,99,0.00,,,0.36,,2013-03-06 11:02:00,
2013-03-06 06:11:00,26.0,26.0,29.67,East,98,7.0,10.0,99,0.00,,,0.36,,2013-03-06 11:11:00,
2013-03-06 06:22:00,26.0,26.0,29.67,ESE,104,5.0,13.0,99,0.00,,,0.36,,2013-03-06 11:22:00,
2013-03-06 06:32:00,25.0,25.0,29.68,East,87,5.0,13.0,98,0.00,,,0.36,,2013-03-06 11:32:00,
2013-03-06 06:42:00,25.0,25.0,29.68,East,87,5.0,13.0,98,0.00,,,0.36,,2013-03-06 11:42:00,
2013-03-06 06:52:00,25.0,25.0,29.68,East,87,5.0,13.0,98,0.00,,,0.36,,2013-03-06 11:52:00,
2013-03-06 07:02:00,25.0,25.0,29.69,ESE,107,6.0,9.0,98,0.00,,,0.36,,2013-03-06 12:02:00,
2013-03-06 07:12:00,25.0,25.0,29.69,ESE,107,6.0,9.0,98,0.00,,,0.36,,2013-03-06 12:12:00,
2013-03-06 07:22:00,25.0,25.0,29.68,ESE,114,2.0,7.0,99,0.00,,,0.36,,2013-03-06 12:22:00,
2013-03-06 07:33:00,25.0,25.0,29.70,East,90,3.0,6.0,99,0.00,,,0.36,,2013-03-06 12:33:00,
2013-03-06 07:42:00,25.0,25.0,29.70,East,90,3.0,6.0,99,0.00,,,0.36,,2013-03-06 12:42:00,
2013-03-06 07:52:00,25.0,25.0,29.70,SE,130,3.0,6.0,98,0.00,,,0.36,,2013-03-06 12:52:00,
2013-03-06 08:02:00,26.0,26.0,29.71,SE,132,1.0,4.0,98,0.00,,,0.36,,2013-03-06 13:02:00,
2013-03-06 08:12:00,26.0,26.0,29.71,SE,132,1.0,4.0,98,0.00,,,0.36,,2013-03-06 13:12:00,
2013-03-06 08:22:00,26.0,26.0,29.71,ESE,113,0.0,3.0,98,0.00,,,0.36,,2013-03-06 13:22:00,
2013-03-06 08:32:00,26.0,26.0,29.72,SSE,162,0.0,4.0,99,0.00,,,0.36,,2013-03-06 13:32:00,
2013-03-06 08:42:00,26.0,26.0,29.72,SSE,162,0.0,4.0,99,0.00,,,0.36,,2013-03-06 13:42:00,
2013-03-06 08:52:00,26.0,26.0,29.73,East,98,2.0,4.0,99,0.00,,,0.36,,2013-03-06 13:52:00,
2013-03-06 09:02:00,26.0,26.0,29.74,ENE,61,0.0,3.0,98,0.00,,,0.36,,2013-03-06 14:02:00,
2013-03-06 09:11:00,26.0,26.0,29.74,ENE,61,0.0,3.0,98,0.00,,,0.36,,2013-03-06 14:11:00,
2013-03-06 09:22:00,26.0,26.0,29.75,West,275,0.0,4.0,99,0.00,,,0.36,,2013-03-06 14:22:00,
2013-03-06 09:32:00,27.0,27.0,29.76,West,259,2.0,4.0,99,0.00,,,0.35,,2013-03-06 14:32:00,
2013-03-06 09:42:00,27.0,27.0,29.76,West,259,2.0,4.0,99,0.00,,,0.35,,2013-03-06 14:42:00,
2013-03-06 09:52:00,27.0,27.0,29.76,West,259,2.0,4.0,99,0.00,,,0.35,,2013-03-06 14:52:00,
2013-03-06 10:02:00,28.0,28.0,29.77,West,279,3.0,7.0,98,0.00,,,0.30,,2013-03-06 15:02:00,
2013-03-06 10:12:00,28.0,28.0,29.77,West,279,3.0,7.0,98,0.00,,,0.30,,2013-03-06 15:12:00,
2013-03-06 10:22:00,28.0,28.0,29.78,WNW,290,2.0,4.0,98,0.00,,,0.29,,2013-03-06 15:22:00,
2013-03-06 10:32:00,29.0,29.0,29.78,West,263,2.0,5.0,98,0.00,,,0.27,,2013-03-06 15:32:00,
2013-03-06 10:42:00,29.0,29.0,29.78,West,263,2.0,5.0,98,0.00,,,0.27,,2013-03-06 15:42:00,
2013-03-06 10:52:00,29.0,29.0,29.79,NW,320,3.0,6.0,98,0.00,,,0.25,,2013-03-06 15:52:00,
2013-03-06 11:02:00,29.0,29.0,29.80,NW,306,4.0,6.0,98,0.00,,,0.22,,2013-03-06 16:02:00,
2013-03-06 11:12:00,29.0,29.0,29.80,NW,306,4.0,6.0,98,0.00,,,0.22,,2013-03-06 16:12:00,
2013-03-06 11:21:00,29.0,29.0,29.80,WNW,299,4.0,11.0,98,0.00,,,0.21,,2013-03-06 16:21:00,
2013-03-06 11:32:00,29.0,29.0,29.82,WNW,301,4.0,7.0,98,0.01,,,0.21,,2013-03-06 16:32:00,
2013-03-06 11:42:00,29.0,29.0,29.82,WNW,301,4.0,7.0,98,0.01,,,0.21,,2013-03-06 16:42:00,
2013-03-06 11:52:00,29.0,29.0,29.82,NW,316,6.0,10.0,98,0.02,,,0.22,,2013-03-06 16:52:00,
2013-03-06 12:01:00,30.0,29.0,29.83,NNW,340,5.0,10.0,98,0.04,,,0.23,,2013-03-06 17:01:00,
2013-03-06 12:11:00,30.0,29.0,29.83,NNW,340,5.0,10.0,98,0.04,,,0.23,,2013-03-06 17:11:00,
2013-03-06 12:22:00,30.0,29.0,29.83,West,277,3.0,8.0,98,0.05,,,0.23,,2013-03-06 17:22:00,
2013-03-06 12:32:00,30.0,29.0,29.83,ENE,59,6.0,12.0,97,0.07,,,0.23,,2013-03-06 17:32:00,
2013-03-06 12:42:00,30.0,29.0,29.83,ENE,59,6.0,12.0,97,0.07,,,0.23,,2013-03-06 17:42:00,
2013-03-06 12:52:00,30.0,29.0,29.83,ENE,59,6.0,12.0,97,0.07,,,0.23,,2013-03-06 17:52:00,
2013-03-06 13:02:00,31.0,30.0,29.84,WSW,240,5.0,9.0,97,0.07,,,0.23,,2013-03-06 18:02:00,
2013-03-06 13:29:00,31.0,30.0,29.84,WSW,240,5.0,9.0,97,0.07,,,0.23,,2013-03-06 18:29:00,
2013-03-06 13:42:00,31.0,31.0,29.85,NW,313,3.0,14.0,98,0.06,,,0.22,,2013-03-06 18:42:00,
2013-03-06 13:53:00,31.0,31.0,29.85,NW,319,10.0,13.0,99,0.06,,,0.22,,2013-03-06 18:53:00,
2013-03-06 14:02:00,31.0,31.0,29.85,NW,314,14.0,17.0,99,0.06,,,0.23,,2013-03-06 19:02:00,
2013-03-06 14:11:00,31.0,31.0,29.85,NW,314,14.0,17.0,99,0.06,,,0.23,,2013-03-06 19:11:00,
2013-03-06 14:22:00,31.0,31.0,29.85,NW,314,14.0,17.0,99,0.06,,,0.23,,2013-03-06 19:22:00,
2013-03-06 14:32:00,31.0,31.0,29.86,NW,310,9.0,15.0,99,0.05,,,0.23,,2013-03-06 19:32:00,
2013-03-06 14:43:00,31.0,31.0,29.86,NW,310,9.0,15.0,99,0.05,,,0.23,,2013-03-06 19:43:00,
2013-03-06 14:53:00,31.0,31.0,29.87,NNW,328,12.0,17.0,99,0.05,,,0.24,,2013-03-06 19:53:00,
2013-03-06 15:02:00,31.0,31.0,29.88,NW,315,10.0,17.0,99,0.03,,,0.23,,2013-03-06 20:02:00,
2013-03-06 15:12:00,31.0,31.0,29.88,NW,315,10.0,17.0,99,0.03,,,0.23,,2013-03-06 20:12:00,
2013-03-06 15:22:00,32.0,32.0,29.88,NW,312,10.0,18.0,99,0.03,,,0.24,,2013-03-06 20:22:00,
2013-03-06 15:33:00,31.0,31.0,29.89,WNW,296,5.0,16.0,98,0.02,,,0.23,,2013-03-06 20:33:00,
2013-03-06 15:42:00,31.0,31.0,29.89,WNW,296,5.0,16.0,98,0.02,,,0.23,,2013-03-06 20:42:00,
2013-03-06 15:52:00,31.0,31.0,29.89,NW,317,13.0,14.0,98,0.01,,,0.23,,2013-03-06 20:52:00,
2013-03-06 16:02:00,31.0,30.0,29.90,NW,319,5.0,17.0,96,0.01,,,0.23,,2013-03-06 21:02:00,
2013-03-06 16:12:00,31.0,30.0,29.90,NW,319,5.0,17.0,96,0.01,,,0.23,,2013-03-06 21:12:00,
2013-03-06 16:22:00,31.0,30.0,29.91,NW,324,4.0,13.0,95,0.01,,,0.24,,2013-03-06 21:22:00,
2013-03-06 16:32:00,31.0,29.0,29.91,WNW,300,3.0,12.0,94,0.01,,,0.23,,2013-03-06 21:32:00,
2013-03-06 16:42:00,31.0,29.0,29.91,WNW,300,3.0,12.0,94,0.01,,,0.23,,2013-03-06 21:42:00,
2013-03-06 16:52:00,31.0,29.0,29.92,NW,326,10.0,11.0,94,0.01,,,0.23,,2013-03-06 21:52:00,
2013-03-06 17:02:00,31.0,29.0,29.93,NW,322,2.0,11.0,92,0.01,,,0.23,,2013-03-06 22:02:00,
2013-03-06 17:11:00,31.0,29.0,29.93,NW,322,2.0,11.0,92,0.01,,,0.23,,2013-03-06 22:11:00,
2013-03-06 17:22:00,31.0,29.0,29.93,NW,322,2.0,11.0,92,0.01,,,0.23,,2013-03-06 22:22:00,
2013-03-06 17:32:00,31.0,29.0,29.93,NW,322,2.0,11.0,92,0.01,,,0.23,,2013-03-06 22:32:00,
2013-03-06 17:42:00,31.0,29.0,29.93,NW,322,2.0,11.0,92,0.01,,,0.23,,2013-03-06 22:42:00,